| time (UTC) | temp C | wind direction | speed KPH | gust KPH | rain 1hr cm | rain 24hr cm | rain mn cm | humidity % | barometer mb |
| 20260504050632 | 7 | 0.0 | 0.0 | 0.00 | 0.00 | 0.00 | 90 | 970.3 | |
| 20260504050116 | 7 | 0.0 | 0.0 | 0.00 | 0.00 | 0.00 | 90 | 970.3 | |
| 20260504045515 | 7 | 238 | 0.0 | 0.0 | 0.00 | 0.00 | 0.00 | 90 | 970.0 |
| 20260504045023 | 7 | 0.0 | 0.0 | 0.00 | 0.00 | 0.00 | 90 | 970.3 | |
| 20260504044024 | 7 | 0.0 | 0.0 | 0.00 | 0.00 | 0.00 | 90 | 970.3 | |
| 20260504043629 | 7 | 0.0 | 0.0 | 0.00 | 0.00 | 0.00 | 89 | 970.5 | |
| 20260504043016 | 7 | 238 | 0.0 | 0.0 | 0.00 | 0.00 | 0.00 | 88 | 970.2 |
| 20260504042116 | 7 | 0.0 | 0.0 | 0.00 | 0.00 | 0.00 | 88 | 970.5 | |
| 20260504041507 | 8 | 0.0 | 0.0 | 0.00 | 0.00 | 0.00 | 88 | 970.6 | |
| 20260504041050 | 8 | 0.0 | 0.0 | 0.00 | 0.00 | 0.00 | 88 | 970.5 | |
| 20260504040515 | 8 | 238 | 0.0 | 0.0 | 0.00 | 0.00 | 0.00 | 87 | 970.4 |
| 20260504040014 | 8 | 0.0 | 0.0 | 0.00 | 0.00 | 0.00 | 87 | 970.7 | |
| 20260504035515 | 8 | 238 | 0.0 | 0.0 | 0.00 | 0.00 | 0.00 | 88 | 970.4 |
| 20260504035015 | 8 | 238 | 0.0 | 0.0 | 0.00 | 0.00 | 0.00 | 87 | 970.5 |
| 20260504034548 | 8 | 0.0 | 0.0 | 0.00 | 0.00 | 0.00 | 87 | 970.6 | |
| 20260504033515 | 8 | 238 | 0.0 | 0.0 | 0.00 | 0.00 | 0.00 | 86 | 970.4 |
| 20260504033007 | 8 | 0.0 | 0.0 | 0.00 | 0.00 | 0.00 | 86 | 970.4 | |
| 20260504032515 | 8 | 238 | 0.0 | 0.0 | 0.00 | 0.00 | 0.00 | 84 | 970.3 |
| 20260504032015 | 8 | 238 | 0.0 | 0.0 | 0.00 | 0.00 | 0.00 | 84 | 970.2 |
| 20260504031513 | 9 | 0.0 | 0.0 | 0.00 | 0.00 | 0.00 | 84 | 970.4 | |
| 20260504031015 | 9 | 238 | 0.0 | 0.0 | 0.00 | 0.00 | 0.00 | 83 | 970.2 |
| 20260504030532 | 9 | 0.0 | 0.0 | 0.00 | 0.00 | 0.00 | 84 | 970.4 | |
| 20260504030016 | 9 | 238 | 0.0 | 0.0 | 0.00 | 0.00 | 0.00 | 83 | 970.3 |
| 20260504025515 | 9 | 238 | 0.0 | 0.0 | 0.00 | 0.00 | 0.00 | 82 | 970.3 |
| 20260504024538 | 10 | 0.0 | 0.0 | 0.00 | 0.00 | 0.00 | 81 | 970.4 | |
| 20260504024016 | 10 | 238 | 0.0 | 0.0 | 0.00 | 0.00 | 0.00 | 80 | 970.2 |
| 20260504023550 | 10 | 0.0 | 0.0 | 0.00 | 0.00 | 0.00 | 80 | 970.4 | |
| 20260504022516 | 10 | 238 | 0.0 | 0.0 | 0.00 | 0.00 | 0.00 | 80 | 970.1 |
| 20260504021544 | 10 | 0.0 | 0.0 | 0.00 | 0.00 | 0.00 | 78 | 969.8 | |
| 20260504021018 | 10 | 238 | 0.0 | 0.0 | 0.00 | 0.00 | 0.00 | 77 | 969.8 |
| 20260504020504 | 10 | 0.0 | 0.0 | 0.00 | 0.00 | 0.00 | 77 | 969.9 | |
| 20260504020035 | 10 | 238 | 0.0 | 0.0 | 0.00 | 0.00 | 0.00 | 77 | 969.8 |
| 20260504015015 | 11 | 238 | 0.0 | 0.0 | 0.00 | 0.00 | 0.00 | 74 | 969.7 |
| 20260504014535 | 11 | 238 | 0.0 | 0.0 | 0.00 | 0.00 | 0.00 | 73 | 969.7 |
| 20260504014015 | 11 | 238 | 0.0 | 0.0 | 0.00 | 0.00 | 0.00 | 72 | 969.7 |
| 20260504013034 | 11 | 0.0 | 0.0 | 0.00 | 0.00 | 0.00 | 70 | 969.6 | |
| 20260504012515 | 11 | 238 | 0.0 | 0.0 | 0.00 | 0.00 | 0.00 | 71 | 969.5 |
| 20260504011532 | 12 | 0.0 | 0.0 | 0.00 | 0.00 | 0.00 | 69 | 969.5 | |
| 20260504011054 | 12 | 0.0 | 0.0 | 0.00 | 0.00 | 0.00 | 67 | 969.4 | |
| 20260504010035 | 12 | 238 | 0.0 | 0.0 | 0.00 | 0.00 | 0.00 | 65 | 969.3 |
| 20260504005015 | 13 | 238 | 0.0 | 0.0 | 0.00 | 0.00 | 0.00 | 64 | 969.2 |
| 20260504004515 | 13 | 238 | 0.0 | 0.0 | 0.00 | 0.00 | 0.00 | 63 | 969.3 |
| 20260504004035 | 13 | 238 | 0.0 | 0.0 | 0.00 | 0.00 | 0.00 | 62 | 969.1 |
| 20260504003015 | 15 | 238 | 0.0 | 0.0 | 0.00 | 0.00 | 0.00 | 60 | 969.0 |
| 20260504002134 | 16 | 0.0 | 0.0 | 0.00 | 0.00 | 0.00 | 59 | 968.9 | |
| 20260504001516 | 16 | 0.0 | 0.0 | 0.00 | 0.00 | 0.00 | 55 | 968.9 | |
| 20260504001015 | 16 | 238 | 0.0 | 0.0 | 0.00 | 0.00 | 0.00 | 52 | 968.9 |
| 20260504000538 | 17 | 0.0 | 0.0 | 0.00 | 0.00 | 0.00 | 53 | 969.1 | |
| 20260504000015 | 17 | 238 | 0.0 | 0.0 | 0.00 | 0.00 | 0.00 | 50 | 969.0 |
| 20260503235035 | 17 | 238 | 0.0 | 1.6 | 0.00 | 0.00 | 0.00 | 49 | 969.0 |
| 20260503234015 | 17 | 238 | 0.0 | 0.0 | 0.00 | 0.00 | 0.00 | 49 | 968.9 |
| 20260503233515 | 17 | 239 | 0.0 | 0.0 | 0.00 | 0.00 | 0.00 | 48 | 968.9 |
| 20260503232535 | 18 | 237 | 0.0 | 1.6 | 0.00 | 0.00 | 0.00 | 47 | 969.0 |
| 20260503231535 | 18 | 335 | 0.0 | 1.6 | 0.00 | 0.00 | 0.00 | 48 | 969.0 |
| 20260503231014 | 18 | 225 | 0.0 | 3.2 | 0.00 | 0.00 | 0.00 | 47 | 968.7 |
| 20260503230515 | 18 | 349 | 0.0 | 1.6 | 0.00 | 0.00 | 0.00 | 47 | 969.1 |
| 20260503230035 | 18 | 349 | 0.0 | 1.6 | 0.00 | 0.00 | 0.00 | 47 | 969.1 |
| 20260503225104 | 18 | 23 | 0.0 | 1.6 | 0.00 | 0.00 | 0.00 | 45 | 968.9 |
| 20260503224515 | 19 | 347 | 1.6 | 9.7 | 0.00 | 0.00 | 0.00 | 45 | 969.0 |
| 20260503223515 | 19 | 340 | 1.6 | 3.2 | 0.00 | 0.00 | 0.00 | 44 | 969.0 |
| 20260503223055 | 19 | 217 | 1.6 | 1.6 | 0.00 | 0.00 | 0.00 | 44 | 969.3 |
| 20260503222515 | 20 | 11 | 0.0 | 1.6 | 0.00 | 0.00 | 0.00 | 43 | 969.0 |
| 20260503221554 | 20 | 270 | 0.0 | 1.6 | 0.00 | 0.00 | 0.00 | 43 | 969.0 |
| 20260503221015 | 20 | 226 | 1.6 | 1.6 | 0.00 | 0.00 | 0.00 | 43 | 969.1 |
| 20260503220015 | 20 | 348 | 0.0 | 0.0 | 0.00 | 0.00 | 0.00 | 40 | 969.2 |
| 20260503215552 | 20 | 0 | 0.0 | 1.6 | 0.00 | 0.00 | 0.00 | 42 | 969.2 |
| 20260503215104 | 20 | 338 | 1.6 | 6.4 | 0.00 | 0.00 | 0.00 | 42 | 969.4 |
| 20260503214515 | 20 | 349 | 0.0 | 0.0 | 0.00 | 0.00 | 0.00 | 41 | 969.3 |
| 20260503214022 | 20 | 158 | 0.0 | 1.6 | 0.00 | 0.00 | 0.00 | 43 | 969.1 |
| 20260503213546 | 21 | 0 | 0.0 | 4.8 | 0.00 | 0.00 | 0.00 | 42 | 969.2 |
| 20260503212555 | 21 | 221 | 0.0 | 1.6 | 0.00 | 0.00 | 0.00 | 44 | 969.4 |
| 20260503212036 | 20 | 225 | 0.0 | 1.6 | 0.00 | 0.00 | 0.00 | 43 | 969.4 |
| 20260503211015 | 20 | 349 | 0.0 | 1.6 | 0.00 | 0.00 | 0.00 | 43 | 969.7 |
| 20260503210538 | 21 | 338 | 1.6 | 12.9 | 0.00 | 0.00 | 0.00 | 40 | 969.9 |
| 20260503210015 | 21 | 229 | 0.0 | 1.6 | 0.00 | 0.00 | 0.00 | 41 | 969.7 |
| 20260503205015 | 21 | 236 | 1.6 | 6.4 | 0.00 | 0.00 | 0.00 | 41 | 969.8 |
| 20260503204105 | 21 | 225 | 1.6 | 8.0 | 0.00 | 0.00 | 0.00 | 39 | 969.8 |
| 20260503203515 | 21 | 64 | 1.6 | 4.8 | 0.00 | 0.00 | 0.00 | 39 | 969.8 |
| 20260503203046 | 21 | 338 | 1.6 | 6.4 | 0.00 | 0.00 | 0.00 | 42 | 969.9 |
| 20260503202537 | 21 | 333 | 0.0 | 1.6 | 0.00 | 0.00 | 0.00 | 40 | 969.9 |
| 20260503201542 | 21 | 0 | 0.0 | 1.6 | 0.00 | 0.00 | 0.00 | 40 | 970.1 |
| 20260503201045 | 21 | 338 | 1.6 | 4.8 | 0.00 | 0.00 | 0.00 | 35 | 970.3 |
| 20260503200515 | 21 | 0 | 0.0 | 9.7 | 0.00 | 0.00 | 0.00 | 39 | 970.2 |
| 20260503195515 | 21 | 229 | 0.0 | 1.6 | 0.00 | 0.00 | 0.00 | 39 | 970.3 |
| 20260503195038 | 21 | 225 | 1.6 | 4.8 | 0.00 | 0.00 | 0.00 | 43 | 970.4 |
| 20260503194015 | 21 | 247 | 1.6 | 8.0 | 0.00 | 0.00 | 0.00 | 38 | 970.7 |
| 20260503193017 | 21 | 253 | 0.0 | 1.6 | 0.00 | 0.00 | 0.00 | 42 | 970.8 |
| 20260503192539 | 21 | 17 | 0.0 | 1.6 | 0.00 | 0.00 | 0.00 | 45 | 970.9 |
| 20260503192003 | 21 | 225 | 1.6 | 6.4 | 0.00 | 0.00 | 0.00 | 41 | 971.0 |
| 20260503191015 | 21 | 347 | 1.6 | 6.4 | 0.00 | 0.00 | 0.00 | 41 | 971.0 |
| 20260503190526 | 21 | 225 | 1.6 | 4.8 | 0.00 | 0.00 | 0.00 | 44 | 971.4 |
| 20260503190015 | 20 | 234 | 4.8 | 6.4 | 0.00 | 0.00 | 0.00 | 42 | 971.0 |
| 20260503185515 | 20 | 261 | 0.0 | 1.6 | 0.00 | 0.00 | 0.00 | 41 | 971.4 |
| 20260503184517 | 21 | 349 | 6.4 | 8.0 | 0.00 | 0.00 | 0.00 | 40 | 971.3 |
| 20260503184014 | 21 | 344 | 3.2 | 6.4 | 0.00 | 0.00 | 0.00 | 43 | 971.4 |
| 20260503183537 | 21 | 295 | 1.6 | 3.2 | 0.00 | 0.00 | 0.00 | 41 | 971.6 |
| 20260503183036 | 20 | 267 | 1.6 | 6.4 | 0.00 | 0.00 | 0.00 | 42 | 971.5 |
| 20260503182105 | 20 | 225 | 1.6 | 6.4 | 0.00 | 0.00 | 0.00 | 41 | 971.7 |
| 20260503181530 | 21 | 270 | 1.6 | 4.8 | 0.00 | 0.00 | 0.00 | 40 | 972.0 |
| 20260503181015 | 21 | 225 | 1.6 | 3.2 | 0.00 | 0.00 | 0.00 | 43 | 972.1 |
| 20260503180032 | 21 | 225 | 1.6 | 4.8 | 0.00 | 0.00 | 0.00 | 42 | 972.0 |
| 20260503175536 | 21 | 225 | 1.6 | 3.2 | 0.00 | 0.03 | 0.00 | 41 | 971.9 |
| 20260503175037 | 21 | 270 | 0.0 | 1.6 | 0.00 | 0.03 | 0.00 | 42 | 972.1 |
| 20260503174508 | 21 | 270 | 0.0 | 3.2 | 0.00 | 0.03 | 0.00 | 44 | 972.1 |
| 20260503174016 | 21 | 265 | 1.6 | 1.6 | 0.00 | 0.03 | 0.00 | 41 | 972.0 |
| 20260503173537 | 21 | 205 | 1.6 | 3.2 | 0.00 | 0.03 | 0.00 | 40 | 972.3 |
| 20260503173005 | 21 | 225 | 1.6 | 6.4 | 0.00 | 0.03 | 0.00 | 41 | 972.3 |
| 20260503172536 | 21 | 264 | 0.0 | 0.0 | 0.00 | 0.03 | 0.00 | 38 | 972.2 |
| 20260503172052 | 21 | 225 | 0.0 | 1.6 | 0.00 | 0.03 | 0.00 | 41 | 972.4 |
| 20260503171548 | 21 | 225 | 0.0 | 3.2 | 0.00 | 0.03 | 0.00 | 39 | 972.4 |
| 20260503171034 | 21 | 225 | 0.0 | 3.2 | 0.00 | 0.03 | 0.00 | 41 | 972.4 |
| 20260503170811 | 21 | 270 | 1.6 | 3.2 | 0.00 | 0.03 | 0.00 | 39 | 972.8 |
| 20260503170103 | 21 | 225 | 0.0 | 1.6 | 0.00 | 0.03 | 0.00 | 42 | 972.5 |
| 20260503150516 | 17 | 216 | 1.6 | 3.2 | 0.00 | 0.03 | 0.00 | 54 | 972.8 |
| 20260503140145 | 15 | 68 | 3.2 | 8.0 | 0.00 | 0.03 | 0.00 | 66 | 972.7 |
| 20260503130516 | 15 | 168 | 0.0 | 0.0 | 0.00 | 0.03 | 0.00 | 68 | 972.4 |
| 20260503110516 | 3 | 202 | 0.0 | 0.0 | 0.00 | 0.03 | 0.00 | 94 | 971.4 |
| 20260503081516 | 5 | 202 | 0.0 | 0.0 | 0.00 | 0.03 | 0.00 | 92 | 970.5 |
| 20260503080515 | 5 | 202 | 0.0 | 0.0 | 0.00 | 0.03 | 0.00 | 91 | 970.6 |
| 20260503072515 | 5 | 202 | 0.0 | 0.0 | 0.00 | 0.03 | 0.00 | 89 | 970.1 |
| 20260503071558 | 6 | 202 | 0.0 | 0.0 | 0.00 | 0.03 | 0.00 | 89 | 970.1 |
| 20260503070536 | 6 | 202 | 0.0 | 0.0 | 0.00 | 0.03 | 0.00 | 89 | 969.8 |
| 20260503070129 | 6 | 0.0 | 0.0 | 0.00 | 0.03 | 0.00 | 89 | 969.9 | |
| 20260503055042 | 7 | 0.0 | 0.0 | 0.00 | 0.03 | 0.00 | 86 | 969.6 | |
| 20260503054606 | 7 | 0.0 | 0.0 | 0.00 | 0.03 | 0.00 | 86 | 969.6 | |
| 20260503054035 | 7 | 202 | 0.0 | 0.0 | 0.00 | 0.03 | 0.00 | 86 | 969.6 |
| 20260503053015 | 7 | 202 | 0.0 | 0.0 | 0.00 | 0.03 | 0.00 | 86 | 969.6 |